This is the latest recevied weather packets stored in our database for station/object VK3CG. If no packets are shown the sender has not sent any weather packets the latest 1 day(s).
| Time | Temp. | Humidity | Pressure | Rain* | Wind** | Luminosity | Snow |
|---|---|---|---|---|---|---|---|
| 1778095843 | 2.78° C | 63% | 1030.7 hPa | 0 mm | - | 0 W/m² | - |
| 1778094939 | 2.78° C | 63% | 1030.6 hPa | 0 mm | - | 0 W/m² | - |
| 1778094040 | 2.78° C | 63% | 1030.4 hPa | 0 mm | - | 0 W/m² | - |
| 1778093144 | 2.78° C | 63% | 1030.3 hPa | 0 mm | - | 0 W/m² | - |
| 1778090430 | 3.33° C | 62% | 1029.9 hPa | 0.25 mm | - | 0 W/m² | - |
| 1778087721 | 4.44° C | 61% | 1029.5 hPa | 0 mm | - | 0 W/m² | - |
| 1778080510 | 3.89° C | 61% | 1029.4 hPa | 0 mm | - | 0 W/m² | - |
| 1778076002 | 5° C | 61% | 1029.1 hPa | 0 mm | - | 0 W/m² | - |
| 1778075160 | 5° C | 62% | 1029 hPa | 0 mm | - | 0 W/m² | - |
| 1778070650 | 5.56° C | 67% | 1028.7 hPa | 0 mm | - | 0 W/m² | - |
| 1778069746 | 6.11° C | 67% | 1028.7 hPa | 0 mm | - | 0 W/m² | - |
| 1778068844 | 6.67° C | 68% | 1028.8 hPa | 0 mm | - | 0 W/m² | - |
| 1778066137 | 8.33° C | 68% | 1028.4 hPa | 3.3 mm | - | 0 W/m² | - |
| 1778065236 | 8.89° C | 68% | 1028.4 hPa | 3.56 mm | - | 0 W/m² | - |
| 1778063436 | 10° C | 67% | 1028.1 hPa | 3.3 mm | - | 0 W/m² | - |
| 1778062541 | 10.56° C | 68% | 1027.2 hPa | 0.25 mm | - | 0 W/m² | - |
| 1778061627 | 10.56° C | 68% | 1027.2 hPa | 0 mm | - | 0 W/m² | - |
| 1778059836 | 10.56° C | 68% | 1027.4 hPa | 1.02 mm | - | 0 W/m² | - |
| 1778058926 | 10.56° C | 67% | 1027.5 hPa | 1.52 mm | - | 0 W/m² | - |
| 1778058026 | 10.56° C | 67% | 1027.5 hPa | 1.52 mm | - | 0 W/m² | - |
| 1778057126 | 10.56° C | 66% | 1027.5 hPa | 1.52 mm | - | 0 W/m² | - |
| 1778054440 | 11.11° C | 65% | 1027.1 hPa | 0 mm | - | 0 W/m² | - |
| 1778053520 | 11.11° C | 65% | 1027.1 hPa | 0 mm | - | 0 W/m² | - |
| 1778052634 | 11.11° C | 64% | 1027.1 hPa | 0 mm | - | 0 W/m² | - |
| 1778049925 | 12.22° C | 62% | 1027.8 hPa | 0 mm | - | 25 W/m² | - |
* Rain latest hour (hover to see other rain measurements)
** Current wind speed in m/s (hover to see current wind gust speed)